KC7GVU Weather Reports


time (UTC)temp
C
wind
direction
speed
KPH
gust
KPH
rain 1hr
cm
rain 24hr
cm
rain mn
cm
humidity
%
barometer
mb
20260504202823 22 45 0.0 0.0 0.00 0.00 0.00 49 1010.0
20260504202322 22 22 0.0 0.0 0.00 0.00 0.00 48 1010.0
20260504201822 22 22 0.0 0.0 0.00 0.00 0.00 48 1009.0
20260504201322 22 45 0.0 0.0 0.00 0.00 0.00 48 1009.0
20260504200822 23 45 0.0 0.0 0.00 0.00 0.00 48 1009.0
20260504200322 23 22 0.0 0.0 0.00 0.00 0.00 47 1009.0
20260504195822 23 45 0.0 0.0 0.00 0.00 0.00 47 1009.0
20260504195324 23 45 0.0 0.0 0.00 0.00 0.00 47 1009.0
20260504194823 23 22 0.0 0.0 0.00 0.00 0.00 46 1009.0
20260504194323 23 22 0.0 0.0 0.00 0.00 0.00 45 1009.0
20260504193823 24 45 0.0 0.0 0.00 0.00 0.00 45 1009.0
20260504193322 24 45 0.0 0.0 0.00 0.00 0.00 45 1010.0
20260504192822 24 45 0.0 0.0 0.00 0.00 0.00 43 1009.0
20260504192322 24 45 0.0 0.0 0.00 0.00 0.00 43 1009.0
20260504191822 24 22 0.0 0.0 0.00 0.00 0.00 43 1009.0
20260504191323 24 45 0.0 0.0 0.00 0.00 0.00 43 1010.0
20260504190823 24 45 0.0 0.0 0.00 0.00 0.00 44 1009.0
20260504190322 24 45 0.0 0.0 0.00 0.00 0.00 44 1009.0
20260504185824 24 22 0.0 0.0 0.00 0.00 0.00 45 1010.0
20260504184823 24 338 0.0 0.0 0.00 0.00 0.00 45 1009.0
20260504184323 23 45 0.0 0.0 0.00 0.00 0.00 45 1010.0
20260504183824 23 45 0.0 0.0 0.00 0.00 0.00 45 1010.0
20260504183323 23 45 0.0 0.0 0.00 0.00 0.00 46 1010.0
20260504182822 23 22 0.0 0.0 0.00 0.00 0.00 46 1010.0
20260504182322 23 0 0.0 0.0 0.00 0.00 0.00 46 1010.0
20260504181822 23 22 0.0 0.0 0.00 0.00 0.00 46 1010.0
20260504181322 23 45 0.0 0.0 0.00 0.00 0.00 46 1010.0
20260504180823 23 338 0.0 0.0 0.00 0.00 0.00 46 1010.0
20260504180324 23 22 0.0 0.0 0.00 0.00 0.00 45 1010.0
20260504175823 22 0 0.0 0.0 0.00 0.00 0.00 46 1010.0
20260504175323 22 45 0.0 0.0 0.00 0.00 0.00 46 1010.0
20260504174823 22 45 0.0 0.0 0.00 0.00 0.00 46 1010.0
20260504174323 22 45 0.0 0.0 0.00 0.00 0.00 46 1010.0
20260504173823 23 22 0.0 0.0 0.00 0.00 0.00 45 1010.0
20260504173324 22 22 0.0 0.0 0.00 0.00 0.00 46 1010.0
20260504172822 22 45 0.0 0.0 0.00 0.00 0.00 45 1010.0
20260504172322 22 45 0.0 0.0 0.00 0.00 0.00 45 1010.0
20260504171823 22 45 0.0 0.0 0.00 0.00 0.00 45 1010.0
20260504170823 22 22 0.0 0.0 0.00 0.00 0.00 46 1010.0
20260504170323 22 45 0.0 0.0 0.00 0.00 0.00 46 1010.0
20260504160322 22 22 0.0 0.0 0.00 0.00 0.00 45 1010.0
20260504150823 19 225 0.0 0.0 0.00 0.00 0.00 49 1009.0
20260504150323 18 225 0.0 0.0 0.00 0.00 0.00 50 1009.0
20260504141324 15 225 0.0 0.0 0.00 0.00 0.00 54 1009.0
20260504140823 15 225 0.0 0.0 0.00 0.00 0.00 55 1009.0
20260504140322 14 225 0.0 0.0 0.00 0.00 0.00 56 1009.0
20260504130323 10 202 0.0 0.0 0.00 0.00 0.00 62 1009.0
20260504110323 11 202 0.0 0.0 0.00 0.00 0.00 58 1008.0
20260504100323 14 158 0.0 0.0 0.00 0.00 0.00 49 1008.0
20260504081823 16 202 0.0 0.0 0.00 0.00 0.00 48 1008.0
20260504081323 16 225 0.0 0.0 0.00 0.00 0.00 48 1008.0
20260504080823 16 202 0.0 0.0 0.00 0.00 0.00 48 1008.0
20260504080322 16 202 0.0 0.0 0.00 0.00 0.00 48 1008.0
20260504070323 16 225 0.0 0.0 0.00 0.00 0.00 50 1009.0
20260504045823 17 225 0.0 0.0 0.00 0.00 0.00 50 1009.0
20260504044823 17 202 0.0 0.0 0.00 0.00 0.00 49 1009.0
20260504044323 17 225 0.0 0.0 0.00 0.00 0.00 49 1009.0
20260504043824 17 225 0.0 0.0 0.00 0.00 0.00 49 1009.0
20260504043324 17 225 0.0 0.0 0.00 0.00 0.00 49 1009.0
20260504042824 17 202 0.0 0.0 0.00 0.00 0.00 49 1009.0
20260504042324 17 225 0.0 0.0 0.00 0.00 0.00 49 1009.0
20260504041824 17 180 0.0 0.0 0.00 0.00 0.00 48 1009.0
20260504041324 17 225 0.0 0.0 0.00 0.00 0.00 48 1009.0
20260504040824 17 225 0.0 0.0 0.00 0.00 0.00 48 1009.0
20260504040324 17 225 0.0 0.0 0.00 0.00 0.00 48 1009.0
20260504035822 18 225 0.0 0.0 0.00 0.00 0.00 48 1008.0
20260504035323 18 225 0.0 0.0 0.00 0.00 0.00 48 1009.0
20260504034824 18 202 0.0 0.0 0.00 0.00 0.00 48 1008.0
20260504034324 18 225 0.0 0.0 0.00 0.00 0.00 48 1008.0
20260504033824 18 225 0.0 0.0 0.00 0.00 0.00 48 1008.0
20260504033323 19 202 0.0 0.0 0.00 0.00 0.00 48 1008.0
20260504032324 20 225 0.0 0.0 0.00 0.00 0.00 46 1008.0
20260504031824 20 225 0.0 0.0 0.00 0.00 0.00 45 1008.0
20260504031323 21 225 0.0 0.0 0.00 0.00 0.00 44 1008.0
20260504030823 21 225 0.0 0.0 0.00 0.00 0.00 43 1008.0
20260504030323 21 225 0.0 0.0 0.00 0.00 0.00 43 1008.0
20260504025823 21 202 0.0 0.0 0.00 0.00 0.00 42 1008.0
20260504025322 22 202 0.0 0.0 0.00 0.00 0.00 41 1008.0
20260504024824 22 45 0.0 0.0 0.00 0.00 0.00 40 1008.0
20260504024324 22 45 0.0 0.0 0.00 0.00 0.00 39 1009.0
20260504023824 23 45 0.0 0.0 0.00 0.00 0.00 39 1009.0
20260504023323 23 45 0.0 0.0 0.00 0.00 0.00 38 1009.0
20260504022823 23 45 0.0 0.0 0.00 0.00 0.00 38 1009.0
20260504022323 23 45 0.0 0.0 0.00 0.00 0.00 38 1009.0
20260504021825 23 22 0.0 0.0 0.00 0.00 0.00 38 1009.0
20260504021323 23 45 0.0 0.0 0.00 0.00 0.00 37 1009.0
20260504020824 23 225 0.0 0.0 0.00 0.00 0.00 37 1009.0
20260504020324 23 225 0.0 0.0 0.00 0.00 0.00 38 1009.0
20260504015823 23 225 0.0 0.0 0.00 0.00 0.00 38 1009.0
20260504015324 23 225 0.0 0.0 0.00 0.00 0.00 38 1009.0
20260504014823 23 202 0.0 0.0 0.00 0.00 0.00 37 1009.0
20260504014323 23 225 0.0 0.0 0.00 0.00 0.00 37 1009.0
20260504013824 23 202 0.0 0.0 0.00 0.00 0.00 37 1009.0
20260504013324 24 202 0.0 0.0 0.00 0.00 0.00 37 1009.0
20260504012824 24 202 0.0 0.0 0.00 0.00 0.00 37 1009.0
20260504012324 24 202 0.0 0.0 0.00 0.00 0.00 37 1009.0
20260504011824 24 225 0.0 0.0 0.00 0.00 0.00 36 1009.0
20260504011324 24 180 0.0 0.0 0.00 0.00 0.00 36 1009.0
20260504010824 24 45 0.0 0.0 0.00 0.00 0.00 36 1009.0
20260504010323 25 338 0.0 0.0 0.00 0.00 0.00 36 1009.0
20260504005823 25 0 0.0 0.0 0.00 0.00 0.00 36 1010.0
20260504005323 25 225 0.0 0.0 0.00 0.00 0.00 36 1010.0
20260504004823 25 0 0.0 0.0 0.00 0.00 0.00 36 1010.0
20260504004323 25 338 0.0 0.0 0.00 0.00 0.00 35 1010.0
20260504003823 25 45 0.0 0.0 0.00 0.00 0.00 36 1010.0
20260504003324 25 45 0.0 0.0 0.00 0.00 0.00 36 1010.0
20260504002824 25 45 0.0 0.0 0.00 0.00 0.00 36 1010.0
20260504002324 25 0 0.0 0.0 0.00 0.00 0.00 36 1010.0
20260504001823 25 45 0.0 0.0 0.00 0.00 0.00 36 1010.0
20260504001324 25 0 0.0 0.0 0.00 0.00 0.00 36 1010.0
20260504000823 25 338 0.0 0.0 0.00 0.00 0.00 36 1010.0
20260504000323 25 45 0.0 0.0 0.00 0.00 0.00 37 1010.0
20260503235823 25 0 0.0 0.0 0.00 0.00 0.00 36 1010.0
20260503235323 25 45 0.0 0.0 0.00 0.00 0.00 36 1010.0
20260503234823 25 338 0.0 0.0 0.00 0.00 0.00 36 1010.0
20260503234323 25 0 0.0 0.0 0.00 0.00 0.00 37 1010.0
20260503233823 25 22 0.0 0.0 0.00 0.00 0.00 37 1010.0
20260503233323 26 0 0.0 0.0 0.00 0.00 0.00 37 1010.0
20260503232823 26 338 0.0 0.0 0.00 0.00 0.00 37 1010.0
20260503232323 25 45 0.0 0.0 0.00 0.00 0.00 38 1010.0
20260503231822 25 45 0.0 0.0 0.00 0.00 0.00 38 1010.0
20260503231324 25 45 0.0 0.0 0.00 0.00 0.00 38 1010.0
20260503230824 25 45 0.0 0.0 0.00 0.00 0.00 38 1010.0
20260503230323 25 0 0.0 0.0 0.00 0.00 0.00 39 1010.0
20260503225823 25 338 0.0 0.0 0.00 0.00 0.00 39 1011.0
20260503225323 25 45 0.0 0.0 0.00 0.00 0.00 39 1011.0
20260503224823 25 45 0.0 0.0 0.00 0.00 0.00 39 1011.0
20260503224323 25 22 0.0 0.0 0.00 0.00 0.00 39 1011.0
20260503223823 25 338 0.0 0.0 0.00 0.00 0.00 39 1011.0
20260503223323 25 45 0.0 0.0 0.00 0.00 0.00 40 1011.0
20260503222823 25 45 0.0 0.0 0.00 0.00 0.00 40 1011.0
20260503222324 25 338 0.0 0.0 0.00 0.00 0.00 40 1012.0
20260503221823 25 22 0.0 0.0 0.00 0.00 0.00 40 1012.0
20260503221323 25 45 0.0 0.0 0.00 0.00 0.00 40 1012.0
20260503220324 25 45 0.0 0.0 0.00 0.00 0.00 41 1012.0
20260503215823 25 338 0.0 0.0 0.00 0.00 0.00 42 1012.0
20260503215323 24 45 0.0 0.0 0.00 0.00 0.00 40 1012.0
20260503214823 24 22 0.0 0.0 0.00 0.00 0.00 41 1012.0
20260503214323 24 22 0.0 0.0 0.00 0.00 0.00 41 1012.0
20260503213823 24 45 0.0 0.0 0.00 0.00 0.00 41 1012.0
20260503213324 24 338 0.0 0.0 0.00 0.00 0.00 41 1012.0
20260503212824 24 22 0.0 0.0 0.00 0.00 0.00 41 1012.0
20260503212324 24 22 0.0 0.0 0.00 0.00 0.00 41 1012.0
20260503211824 25 22 0.0 0.0 0.00 0.00 0.00 42 1012.0
20260503211323 25 22 0.0 0.0 0.00 0.00 0.00 42 1012.0
20260503210824 25 22 0.0 0.0 0.00 0.00 0.00 41 1012.0
20260503210323 25 22 0.0 0.0 0.00 0.00 0.00 41 1012.0
20260503205823 25 22 0.0 0.0 0.00 0.00 0.00 41 1012.0
20260503205323 25 45 0.0 0.0 0.00 0.00 0.00 42 1012.0
20260503204823 25 22 0.0 0.0 0.00 0.00 0.00 42 1012.0
20260503203824 25 45 0.0 0.0 0.00 0.00 0.00 43 1012.0
20260503203323 25 22 0.0 0.0 0.00 0.00 0.00 43 1012.0